Regional Weather Roundup
Issued by NWS

Home | Current Version | Previous Version | Text Only | Print | Product List | Glossary On
Versions: 1 2 3 4 5 6 7 8 9 10 11 12 13 14 15 16 17 18 19 20 21 22 23 24 25 26 27
000
ASUS45 KTFX 292110
RWRMT
MONTANA REGIONAL WEATHER ROUNDUP
NATIONAL WEATHER SERVICE GREAT FALLS MT
300 PM MDT THU SEP 29 2016

NOTE: "FAIR" INDICATES FEW OR NO CLOUDS BELOW 12000 FEET WITH NO
SIGNIFICANT WEATHER AND/OR OBSTRUCTIONS TO VISIBILITY.

MTZ001>007-043-292200-
WEST OF THE DIVIDE

CITY           SKY/WX    TMP DP  RH WIND       PRES   REMARKS
KALISPELL        N/A     71  46  40 N3        30.01S
MISSOULA         N/A     73  46  38 W8        30.01F
BUTTE          MOSUNNY   76  37  24 SE10      30.13F
MULLAN PASS      N/A     68  43  40 CALM      30.13S
ANACONDA         N/A     81  32  17 SW9G17    30.08F
DEER LODGE       N/A     81  30  16 S8        30.08F
EUREKA           N/A     64  45  48 CALM      30.03F
HAMILTON         N/A     73  45  35 NW7       30.01F
LIBBY            N/A     68  46  45 CALM      29.99F
RONAN            N/A     71  47  42 NW9       30.06F
$$

MTZ008-052>055-292200-
SOUTHWEST MONTANA

CITY           SKY/WX    TMP DP  RH WIND       PRES   REMARKS
BOZEMAN        CLOUDY    76  51  41 SE3       30.10F
DILLON         CLOUDY    73  41  31 S8        30.13F
W YELLOWSTONE  CLOUDY    66  39  37 SW9G20    30.28F
ENNIS          MOSUNNY   72  41  33 S20G29    30.20S
THREE FORKS      N/A     76  76 100 CALM      30.07F
TWIN BRIDGES     N/A     75  42  30 E5        30.10F
$$

MTZ009-010-012-014-046-048-049-054-292200-
EAST SLOPES AND CENTRAL MONTANA

CITY           SKY/WX    TMP DP  RH WIND       PRES   REMARKS
CUT BANK         N/A     69  47  45 SE7       30.06F
GREAT FALLS    SUNNY     75  50  41 NE9       30.03F
MALMSTROM AFB  SUNNY     72  51  46 N9G15     30.04F
HELENA         SUNNY     77  50  38 CALM      30.05F
AUGUSTA          N/A     73  46  37 S6G14     30.06F
BOWMANS CRNR     N/A     77  41  28 S16       30.03F
CHOTEAU          N/A     73  50  43 VRB7      30.07F
CONRAD           N/A     72  55  54 N3        30.07F
FAIRFIELD        N/A     74  46  36 SE5       30.04F
POWER            N/A     74  47  37 SE3       30.04F
RAYNESFORD       N/A     74  51  44 W3        30.05F
$$

MTZ011-013-016-021-045-047-050-051-292200-
NORTH CENTRAL MONTANA

CITY           SKY/WX    TMP DP  RH WIND       PRES   REMARKS
HAVRE          SUNNY     74  53  48 E5        30.02F
LEWISTOWN      CLOUDY    79  42  26 W7        30.06F
N BAR RANCH      N/A     77  52  41 S10       30.11F
CHINOOK          N/A     72  54  53 E3        30.02F
DENTON           N/A     74  54  48 NE9       30.02F
GEYSER           N/A     73  46  37 S6G14     30.06F
GRASS RANGE      N/A     78  51  37 E8        30.02F
JUDITH GAP       N/A     72  51  48 S15       30.10F
ROY              N/A     72  55  55 MISG      30.04F
STANFORD         N/A     75  53  46 NE7       30.07F
WINIFRED         N/A     73  55  54 MISG      30.05F
$$

MTZ017>020-022>027-061-062-292200-
NORTHEAST MONTANA

CITY           SKY/WX    TMP DP  RH WIND       PRES   REMARKS
GLASGOW        SUNNY     80  45  28 S16G25    30.04F
JORDAN           N/A     79  48  33 VRB7      30.05F
SIDNEY         SUNNY     80  50  34 SE13      30.11F
WOLF POINT     SUNNY     84  46  26 S10G17    30.05F
PLENTYWOOD       N/A     79  45  29 SE17G23   30.12F
POPLAR           N/A     82  46  28 E17       30.06F
$$

MTZ028>42-056>058-292200-
SOUTHCENTRAL AND SOUTHEAST MONTANA

CITY           SKY/WX    TMP DP  RH WIND       PRES   REMARKS
BAKER          SUNNY     77  44  30 SE24G32   30.14F
BILLINGS       MOSUNNY   74  45  35 E5        30.08F
LIVINGSTON     CLOUDY    81  42  25 SW14G22   30.10F
MILES CITY     SUNNY     82  47  29 SE8       30.05F
BIG TIMBER     SUNNY     79  45  29 SW9       30.13F
FORSYTH          N/A     77  48  36 NE6       30.05F
HARLOWTON        N/A     76  48  37 SE7       30.09F
LAUREL           N/A     74  49  41 NE3       30.06F
ROUNDUP          N/A     80  46  30 SE7       29.97F
$$

REGIONAL REPORTS...DAKOTAS

CITY           SKY/WX    TMP DP  RH WIND       PRES   REMARKS
WILLISTON      SUNNY     76  48  37 SE15      30.15F
MINOT          SUNNY     71  45  39 SE18G24   30.25F
DICKINSON      SUNNY     73  41  31 SE25      30.18
BEACH            N/A     75  45  33 SE18G26   30.17F
CROSBY           N/A     75  45  33 SE20      30.19F
WATFORD CITY     N/A     75  46  35 SE15G21   30.17F
BISMARCK       SUNNY     71  46  40 SE20G26   30.28F
GRAND FORKS    MOSUNNY   67  46  47 S9        30.40F
FARGO          SUNNY     67  44  43 S7        30.40F
BUFFALO SD       N/A     80  44  27 SE24G37   30.10F
RAPID CITY     SUNNY     81  44  27 S22G29    30.20F
$$

REGIONAL REPORTS...WYOMING/IDAHO/WASHINGTON

CITY           SKY/WX    TMP DP  RH WIND       PRES   REMARKS
GILLETTE       SUNNY     78  47  33 S18       30.15F
SHERIDAN       PTSUNNY   69  53  56 CALM      30.11F
BUFFALO WY     CLOUDY    81  40  23 W12       30.18S
CODY           CLOUDY    77  41  27 S9        30.18F
YELLOWSTONE LA   N/A     55  44  66 CALM      30.39F
IDAHO FALLS    CLOUDY    75  47  36 SW16      30.18F
SALMON         SUNNY     79  45  29 S3        30.04F
BOISE            N/A     88  34  14 VRB5      29.99F
SPOKANE        PTSUNNY   76  47  35 VRB3      29.96F
$$

REGIONAL REPORTS...ALBERTA

CITY           SKY/WX    TMP DP  RH WIND       PRES   REMARKS
EDMONTON       SUNNY     59  39  47 SE9       30.14F
CALGARY        PTSUNNY   59  41  51 E8        30.10F
LETHBRIDGE     MOSUNNY   63  46  55 VRB5      30.09S
MEDICINE HAT   MOSUNNY   66  48  52 N10       30.05F
WATERTON GATE    N/A     64  45  48 NE5         N/A
CARDSTON         N/A     63  45  51 SE2         N/A
MILK RIVER       N/A     68  50  52 NE7         N/A
ONEFOUR          N/A     75  46  35 SE3         N/A
$$

REGIONAL REPORTS...SASKATCHEWAN

CITY           SKY/WX    TMP DP  RH WIND       PRES   REMARKS
SWIFT CURRENT  SUNNY     73  52  46 SE10      30.05F
REGINA         MOSUNNY   79  41  25 SE21G32   30.09F
SASKATOON      PTSUNNY   63  50  63 NE12G17   30.13F
CYPRESS HILLS    N/A     70  50  49 E7          N/A
VAL MARIE        N/A     77  45  31 S12G17      N/A
ROCKGLEN         N/A     79  43  27 SE16G24     N/A
ASSINIBOIA       N/A     64  34  32 E7          N/A
$$




USA.gov is the U.S. government's official web portal to all federal, state and local government web resources and services.